Time,TemperatureF,DewpointF,PressureIn,WindDirection,WindDirectionDegrees,WindSpeedMPH,WindSpeedGustMPH,Humidity,HourlyPrecipIn,Conditions,Clouds,dailyrainin,SoftwareType,DateUTC
2013-07-18 00:00:00,79.0,71.2,30.11,SSW,196,0.0,0.0,77,0.00,,,0.00,Wunderground v.1.15,2013-07-18 05:00:00,
2013-07-18 00:05:00,78.8,71.0,30.11,SSW,197,0.0,0.0,77,0.00,,,0.00,Wunderground v.1.15,2013-07-18 05:05:00,
2013-07-18 00:10:00,78.7,71.3,30.12,SSW,198,0.0,0.0,78,0.00,,,0.00,Wunderground v.1.15,2013-07-18 05:10:00,
2013-07-18 00:15:00,78.5,71.1,30.12,SSW,198,0.0,0.0,78,0.00,,,0.00,Wunderground v.1.15,2013-07-18 05:15:00,
2013-07-18 00:20:00,78.2,70.8,30.12,SSW,198,0.0,0.0,78,0.00,,,0.00,Wunderground v.1.15,2013-07-18 05:20:00,
2013-07-18 00:25:00,78.2,71.2,30.12,SSW,198,0.0,0.0,79,0.00,,,0.00,Wunderground v.1.15,2013-07-18 05:25:00,
2013-07-18 00:30:00,78.2,71.2,30.12,SSW,198,0.0,0.0,79,0.00,,,0.00,Wunderground v.1.15,2013-07-18 05:30:00,
2013-07-18 00:40:00,77.9,71.2,30.12,SSW,193,0.0,0.0,80,0.00,,,0.00,Wunderground v.1.15,2013-07-18 05:40:00,
2013-07-18 00:45:00,77.9,71.2,30.11,SSW,193,0.0,0.0,80,0.00,,,0.00,Wunderground v.1.15,2013-07-18 05:45:00,
2013-07-18 00:50:00,77.8,71.1,30.12,SSW,197,0.0,0.0,80,0.00,,,0.00,Wunderground v.1.15,2013-07-18 05:50:00,
2013-07-18 00:55:00,77.9,71.2,30.11,SSW,201,0.0,0.0,80,0.00,,,0.00,Wunderground v.1.15,2013-07-18 05:55:00,
2013-07-18 01:00:00,77.9,71.2,30.12,SSW,201,0.0,0.0,80,0.00,,,0.00,Wunderground v.1.15,2013-07-18 06:00:00,
2013-07-18 01:05:00,77.8,71.1,30.12,SSW,200,0.0,0.0,80,0.00,,,0.00,Wunderground v.1.15,2013-07-18 06:05:00,
2013-07-18 01:15:00,77.6,71.3,30.11,SSW,201,0.0,0.0,81,0.00,,,0.00,Wunderground v.1.15,2013-07-18 06:15:00,
2013-07-18 01:20:00,77.5,71.2,30.11,SSW,201,0.0,0.0,81,0.00,,,0.00,Wunderground v.1.15,2013-07-18 06:20:00,
2013-07-18 01:25:00,77.3,71.0,30.11,SSW,201,0.0,0.0,81,0.00,,,0.00,Wunderground v.1.15,2013-07-18 06:25:00,
2013-07-18 01:30:00,77.2,71.3,30.11,SSW,201,0.0,0.0,82,0.00,,,0.00,Wunderground v.1.15,2013-07-18 06:30:00,
2013-07-18 01:35:00,77.1,71.2,30.11,SSW,200,0.0,0.0,82,0.00,,,0.00,Wunderground v.1.15,2013-07-18 06:35:00,
2013-07-18 01:40:00,77.0,71.1,30.11,SSW,201,0.0,0.0,82,0.00,,,0.00,Wunderground v.1.15,2013-07-18 06:40:00,
2013-07-18 01:45:00,76.9,71.0,30.11,SSW,200,0.0,0.0,82,0.00,,,0.00,Wunderground v.1.15,2013-07-18 06:45:00,
2013-07-18 01:50:00,76.8,71.2,30.11,SSW,201,0.0,0.0,83,0.00,,,0.00,Wunderground v.1.15,2013-07-18 06:50:00,
2013-07-18 01:55:00,76.8,71.2,30.11,SSW,200,0.0,0.0,83,0.00,,,0.00,Wunderground v.1.15,2013-07-18 06:55:00,
2013-07-18 02:00:00,76.8,71.2,30.11,SSW,200,0.0,0.0,83,0.00,,,0.00,Wunderground v.1.15,2013-07-18 07:00:00,
2013-07-18 02:05:00,76.8,71.2,30.11,SSW,201,0.0,0.0,83,0.00,,,0.00,Wunderground v.1.15,2013-07-18 07:05:00,
2013-07-18 02:10:00,76.9,71.3,30.11,South,188,0.0,0.0,83,0.00,,,0.00,Wunderground v.1.15,2013-07-18 07:10:00,
2013-07-18 02:15:00,76.9,71.3,30.11,South,188,0.0,0.0,83,0.00,,,0.00,Wunderground v.1.15,2013-07-18 07:15:00,
2013-07-18 02:20:00,76.8,71.2,30.11,South,188,0.0,0.0,83,0.00,,,0.00,Wunderground v.1.15,2013-07-18 07:20:00,
2013-07-18 02:30:00,76.7,71.1,30.11,South,187,0.0,0.0,83,0.00,,,0.00,Wunderground v.1.15,2013-07-18 07:30:00,
2013-07-18 02:35:00,76.6,71.4,30.11,South,187,0.0,0.0,84,0.00,,,0.00,Wunderground v.1.15,2013-07-18 07:35:00,
2013-07-18 02:45:00,76.2,71.0,30.11,South,187,0.0,0.0,84,0.00,,,0.00,Wunderground v.1.15,2013-07-18 07:45:00,
2013-07-18 02:50:00,76.1,71.3,30.11,South,187,0.0,0.0,85,0.00,,,0.00,Wunderground v.1.15,2013-07-18 07:50:00,
2013-07-18 02:55:00,75.9,71.1,30.11,South,187,0.0,0.0,85,0.00,,,0.00,Wunderground v.1.15,2013-07-18 07:55:00,
2013-07-18 03:00:00,75.7,70.9,30.11,South,187,0.0,0.0,85,0.00,,,0.00,Wunderground v.1.15,2013-07-18 08:00:00,
2013-07-18 03:05:00,75.5,71.0,30.10,South,187,0.0,0.0,86,0.00,,,0.00,Wunderground v.1.15,2013-07-18 08:05:00,
2013-07-18 03:10:00,75.3,70.8,30.10,South,187,0.0,0.0,86,0.00,,,0.00,Wunderground v.1.15,2013-07-18 08:10:00,
2013-07-18 03:20:00,75.0,70.9,30.10,South,187,0.0,0.0,87,0.00,,,0.00,Wunderground v.1.15,2013-07-18 08:20:00,
2013-07-18 03:25:00,75.0,70.9,30.10,South,187,0.0,0.0,87,0.00,,,0.00,Wunderground v.1.15,2013-07-18 08:25:00,
2013-07-18 03:30:00,74.9,70.8,30.10,South,187,0.0,0.0,87,0.00,,,0.00,Wunderground v.1.15,2013-07-18 08:30:00,
2013-07-18 03:35:00,74.8,70.7,30.10,South,187,0.0,0.0,87,0.00,,,0.00,Wunderground v.1.15,2013-07-18 08:35:00,
2013-07-18 03:40:00,74.8,70.7,30.10,South,187,0.0,0.0,87,0.00,,,0.00,Wunderground v.1.15,2013-07-18 08:40:00,
2013-07-18 03:45:00,74.7,70.9,30.10,South,187,0.0,0.0,88,0.00,,,0.00,Wunderground v.1.15,2013-07-18 08:45:00,
2013-07-18 03:55:00,74.5,70.7,30.10,South,187,0.0,0.0,88,0.00,,,0.00,Wunderground v.1.15,2013-07-18 08:55:00,
2013-07-18 04:00:00,74.3,70.5,30.10,South,187,0.0,0.0,88,0.00,,,0.00,Wunderground v.1.15,2013-07-18 09:00:00,
2013-07-18 04:05:00,74.2,70.4,30.10,South,187,0.0,0.0,88,0.00,,,0.00,Wunderground v.1.15,2013-07-18 09:05:00,
2013-07-18 04:15:00,74.0,70.6,30.10,South,187,0.0,0.0,89,0.00,,,0.00,Wunderground v.1.15,2013-07-18 09:15:00,
2013-07-18 04:20:00,73.9,70.5,30.09,South,187,0.0,0.0,89,0.00,,,0.00,Wunderground v.1.15,2013-07-18 09:20:00,
2013-07-18 04:25:00,73.9,70.5,30.09,South,187,0.0,0.0,89,0.00,,,0.00,Wunderground v.1.15,2013-07-18 09:25:00,
2013-07-18 04:30:00,73.8,70.4,30.09,South,187,0.0,0.0,89,0.00,,,0.00,Wunderground v.1.15,2013-07-18 09:30:00,
2013-07-18 04:35:00,73.8,70.4,30.09,South,187,0.0,0.0,89,0.00,,,0.00,Wunderground v.1.15,2013-07-18 09:35:00,
2013-07-18 04:40:00,73.8,70.4,30.09,South,187,0.0,0.0,89,0.00,,,0.00,Wunderground v.1.15,2013-07-18 09:40:00,
2013-07-18 04:45:00,73.7,70.3,30.09,South,187,0.0,0.0,89,0.00,,,0.00,Wunderground v.1.15,2013-07-18 09:45:00,
2013-07-18 04:55:00,73.7,70.3,30.08,South,187,0.0,0.0,89,0.00,,,0.00,Wunderground v.1.15,2013-07-18 09:55:00,
2013-07-18 05:00:00,73.7,70.3,30.08,South,187,0.0,0.0,89,0.00,,,0.00,Wunderground v.1.15,2013-07-18 10:00:00,
2013-07-18 05:05:00,73.7,70.3,30.08,South,187,0.0,0.0,89,0.00,,,0.00,Wunderground v.1.15,2013-07-18 10:05:00,
2013-07-18 05:10:00,73.6,70.2,30.08,South,187,0.0,0.0,89,0.00,,,0.00,Wunderground v.1.15,2013-07-18 10:10:00,
2013-07-18 05:15:00,73.7,70.3,30.08,South,191,0.0,0.0,89,0.00,,,0.00,Wunderground v.1.15,2013-07-18 10:15:00,
2013-07-18 05:20:00,73.7,70.3,30.08,South,191,0.0,0.0,89,0.00,,,0.00,Wunderground v.1.15,2013-07-18 10:20:00,
2013-07-18 05:30:00,73.8,70.4,30.08,SSW,192,0.0,0.0,89,0.00,,,0.00,Wunderground v.1.15,2013-07-18 10:30:00,
2013-07-18 05:35:00,73.8,70.0,30.08,SSW,193,0.0,0.0,88,0.00,,,0.00,Wunderground v.1.15,2013-07-18 10:35:00,
2013-07-18 05:40:00,73.9,70.1,30.08,SSW,194,0.0,0.0,88,0.00,,,0.00,Wunderground v.1.15,2013-07-18 10:40:00,
2013-07-18 05:45:00,73.9,70.1,30.08,South,177,0.0,0.0,88,0.00,,,0.00,Wunderground v.1.15,2013-07-18 10:45:00,
2013-07-18 05:50:00,73.9,70.1,30.08,South,184,0.0,0.0,88,0.00,,,0.00,Wunderground v.1.15,2013-07-18 10:50:00,
2013-07-18 05:55:00,73.9,70.1,30.08,South,190,0.0,0.0,88,0.00,,,0.00,Wunderground v.1.15,2013-07-18 10:55:00,
2013-07-18 06:00:00,73.9,70.1,30.08,SSW,195,0.0,0.0,88,0.00,,,0.00,Wunderground v.1.15,2013-07-18 11:00:00,
2013-07-18 06:05:00,73.9,69.8,30.08,SSW,196,0.0,0.0,87,0.00,,,0.00,Wunderground v.1.15,2013-07-18 11:05:00,
2013-07-18 06:10:00,73.8,70.0,30.08,SSW,195,0.0,0.0,88,0.00,,,0.00,Wunderground v.1.15,2013-07-18 11:10:00,
2013-07-18 06:20:00,73.8,70.0,30.08,SSW,195,0.0,0.0,88,0.00,,,0.00,Wunderground v.1.15,2013-07-18 11:20:00,
2013-07-18 06:25:00,73.9,69.8,30.08,SSW,207,0.0,0.0,87,0.00,,,0.00,Wunderground v.1.15,2013-07-18 11:25:00,
2013-07-18 06:35:00,74.3,70.2,30.07,SSW,192,0.0,0.0,87,0.00,,,0.00,Wunderground v.1.15,2013-07-18 11:35:00,
2013-07-18 06:40:00,74.6,70.1,30.07,SW,215,0.0,0.0,86,0.00,,,0.00,Wunderground v.1.15,2013-07-18 11:40:00,
2013-07-18 06:45:00,74.9,70.1,30.07,SSW,198,0.0,0.0,85,0.00,,,0.00,Wunderground v.1.15,2013-07-18 11:45:00,
2013-07-18 06:50:00,75.1,70.3,30.07,SSW,192,0.0,0.0,85,0.00,,,0.00,Wunderground v.1.15,2013-07-18 11:50:00,
2013-07-18 06:55:00,75.2,70.4,30.07,WSW,238,0.0,0.0,85,0.00,,,0.00,Wunderground v.1.15,2013-07-18 11:55:00,
2013-07-18 07:00:00,75.3,70.5,30.07,SSW,205,0.0,0.0,85,0.00,,,0.00,Wunderground v.1.15,2013-07-18 12:00:00,
2013-07-18 07:05:00,75.5,70.7,30.07,SSW,202,0.0,0.0,85,0.00,,,0.00,Wunderground v.1.15,2013-07-18 12:05:00,
2013-07-18 07:10:00,75.6,70.4,30.07,SSW,203,1.0,1.0,84,0.00,,,0.00,Wunderground v.1.15,2013-07-18 12:10:00,
2013-07-18 07:20:00,75.8,70.6,30.07,SSW,206,1.0,1.0,84,0.00,,,0.00,Wunderground v.1.15,2013-07-18 12:20:00,
2013-07-18 07:25:00,76.0,70.8,30.07,SSW,198,1.0,1.0,84,0.00,,,0.00,Wunderground v.1.15,2013-07-18 12:25:00,
2013-07-18 07:35:00,76.6,71.0,30.07,SSW,198,1.0,1.0,83,0.00,,,0.00,Wunderground v.1.15,2013-07-18 12:35:00,
2013-07-18 07:40:00,76.9,71.0,30.07,SSW,206,1.0,1.0,82,0.00,,,0.00,Wunderground v.1.15,2013-07-18 12:40:00,
2013-07-18 07:45:00,77.2,71.3,30.07,SSW,203,1.0,1.0,82,0.00,,,0.00,Wunderground v.1.15,2013-07-18 12:45:00,
2013-07-18 07:50:00,77.5,71.6,30.07,SSW,208,1.0,4.0,82,0.00,,,0.00,Wunderground v.1.15,2013-07-18 12:50:00,
2013-07-18 07:55:00,77.5,71.6,30.07,SSW,201,1.0,7.0,82,0.00,,,0.00,Wunderground v.1.15,2013-07-18 12:55:00,
2013-07-18 08:00:00,77.7,71.8,30.07,SW,228,1.0,1.0,82,0.00,,,0.00,Wunderground v.1.15,2013-07-18 13:00:00,
2013-07-18 08:05:00,78.1,72.2,30.07,SW,227,1.0,1.0,82,0.00,,,0.00,Wunderground v.1.15,2013-07-18 13:05:00,
2013-07-18 08:15:00,78.3,72.0,30.07,SSW,194,2.0,3.0,81,0.00,,,0.00,Wunderground v.1.15,2013-07-18 13:15:00,
2013-07-18 08:20:00,78.6,72.6,30.07,SSW,211,1.0,1.0,82,0.00,,,0.00,Wunderground v.1.15,2013-07-18 13:20:00,
2013-07-18 08:25:00,79.0,72.7,30.07,South,188,1.0,1.0,81,0.00,,,0.00,Wunderground v.1.15,2013-07-18 13:25:00,
2013-07-18 08:30:00,79.3,73.0,30.06,SW,217,1.0,3.0,81,0.00,,,0.00,Wunderground v.1.15,2013-07-18 13:30:00,
2013-07-18 08:35:00,79.8,73.1,30.07,SSW,200,1.0,8.0,80,0.00,,,0.00,Wunderground v.1.15,2013-07-18 13:35:00,
2013-07-18 08:45:00,80.6,73.1,30.06,SW,216,2.0,2.0,78,0.00,,,0.00,Wunderground v.1.15,2013-07-18 13:45:00,
2013-07-18 08:50:00,81.2,73.7,30.06,SSE,168,1.0,1.0,78,0.00,,,0.00,Wunderground v.1.15,2013-07-18 13:50:00,
2013-07-18 08:55:00,81.5,73.6,30.06,SSW,202,1.0,1.0,77,0.00,,,0.00,Wunderground v.1.15,2013-07-18 13:55:00,
2013-07-18 09:05:00,82.1,73.4,30.06,SSW,213,0.0,4.0,75,0.00,,,0.00,Wunderground v.1.15,2013-07-18 14:05:00,
2013-07-18 09:10:00,82.4,73.7,30.06,SW,214,1.0,1.0,75,0.00,,,0.00,Wunderground v.1.15,2013-07-18 14:10:00,
2013-07-18 09:15:00,82.8,73.7,30.06,SW,218,1.0,1.0,74,0.00,,,0.00,Wunderground v.1.15,2013-07-18 14:15:00,
2013-07-18 09:20:00,83.4,73.8,30.06,South,179,1.0,1.0,73,0.00,,,0.00,Wunderground v.1.15,2013-07-18 14:20:00,
2013-07-18 09:25:00,83.7,73.7,30.06,SSW,209,1.0,6.0,72,0.00,,,0.00,Wunderground v.1.15,2013-07-18 14:25:00,
2013-07-18 09:30:00,83.8,73.4,30.05,SSW,205,2.0,2.0,71,0.00,,,0.00,Wunderground v.1.15,2013-07-18 14:30:00,
2013-07-18 09:35:00,83.8,73.0,30.05,SW,233,3.0,6.0,70,0.00,,,0.00,Wunderground v.1.15,2013-07-18 14:35:00,
2013-07-18 09:40:00,83.9,73.1,30.05,SSW,199,3.0,3.0,70,0.00,,,0.00,Wunderground v.1.15,2013-07-18 14:40:00,
2013-07-18 09:45:00,84.4,73.5,30.05,SSW,211,2.0,3.0,70,0.00,,,0.00,Wunderground v.1.15,2013-07-18 14:45:00,
2013-07-18 09:55:00,84.9,73.6,30.05,SSW,206,1.0,5.0,69,0.00,,,0.00,Wunderground v.1.15,2013-07-18 14:55:00,
2013-07-18 10:00:00,85.1,72.9,30.05,SSW,204,2.0,7.0,67,0.00,,,0.00,Wunderground v.1.15,2013-07-18 15:00:00,
2013-07-18 10:05:00,85.3,74.0,30.05,SSW,211,2.0,7.0,69,0.00,,,0.00,Wunderground v.1.15,2013-07-18 15:05:00,
2013-07-18 10:15:00,85.9,72.8,30.05,SE,128,1.0,5.0,65,0.00,,,0.00,Wunderground v.1.15,2013-07-18 15:15:00,
2013-07-18 10:20:00,86.2,74.0,30.05,South,186,1.0,1.0,67,0.00,,,0.00,Wunderground v.1.15,2013-07-18 15:20:00,
2013-07-18 10:25:00,86.4,72.8,30.05,SW,220,2.0,9.0,64,0.00,,,0.00,Wunderground v.1.15,2013-07-18 15:25:00,
2013-07-18 10:35:00,86.5,73.8,30.05,SSW,210,3.0,4.0,66,0.00,,,0.00,Wunderground v.1.15,2013-07-18 15:35:00,
2013-07-18 10:40:00,86.6,73.4,30.04,South,184,2.0,2.0,65,0.00,,,0.00,Wunderground v.1.15,2013-07-18 15:40:00,
2013-07-18 10:45:00,87.0,73.3,30.04,SW,234,2.0,4.0,64,0.00,,,0.00,Wunderground v.1.15,2013-07-18 15:45:00,
2013-07-18 10:50:00,87.0,73.3,30.04,SSW,196,2.0,3.0,64,0.00,,,0.00,Wunderground v.1.15,2013-07-18 15:50:00,
2013-07-18 11:00:00,87.3,73.6,30.03,South,190,3.0,4.0,64,0.00,,,0.00,Wunderground v.1.15,2013-07-18 16:00:00,
2013-07-18 11:05:00,87.7,74.0,30.03,SW,229,2.0,6.0,64,0.00,,,0.00,Wunderground v.1.15,2013-07-18 16:05:00,
2013-07-18 11:15:00,88.3,74.1,30.03,West,259,2.0,6.0,63,0.00,,,0.00,Wunderground v.1.15,2013-07-18 16:15:00,
2013-07-18 11:25:00,88.6,72.9,30.03,South,187,2.0,6.0,60,0.00,,,0.00,Wunderground v.1.15,2013-07-18 16:25:00,
2013-07-18 11:30:00,88.9,73.7,30.03,WSW,242,2.0,2.0,61,0.00,,,0.00,Wunderground v.1.15,2013-07-18 16:30:00,
2013-07-18 11:35:00,89.3,73.1,30.03,SSW,198,2.0,2.0,59,0.00,,,0.00,Wunderground v.1.15,2013-07-18 16:35:00,
2013-07-18 11:40:00,89.7,73.0,30.03,SW,221,1.0,1.0,58,0.00,,,0.00,Wunderground v.1.15,2013-07-18 16:40:00,
2013-07-18 11:45:00,89.3,73.1,30.03,SSW,195,2.0,6.0,59,0.00,,,0.00,Wunderground v.1.15,2013-07-18 16:45:00,
2013-07-18 11:50:00,89.5,72.3,30.03,SSW,207,2.0,3.0,57,0.00,,,0.00,Wunderground v.1.15,2013-07-18 16:50:00,
2013-07-18 11:55:00,89.3,71.5,30.02,South,178,3.0,3.0,56,0.00,,,0.00,Wunderground v.1.15,2013-07-18 16:55:00,
2013-07-18 12:00:00,89.4,72.2,30.02,WNW,293,3.0,3.0,57,0.00,,,0.00,Wunderground v.1.15,2013-07-18 17:00:00,
2013-07-18 12:10:00,89.6,71.8,30.02,SW,217,2.0,2.0,56,0.00,,,0.00,Wunderground v.1.15,2013-07-18 17:10:00,
2013-07-18 12:20:00,89.8,72.0,30.02,SW,225,3.0,6.0,56,0.00,,,0.00,Wunderground v.1.15,2013-07-18 17:20:00,
2013-07-18 12:25:00,89.8,72.0,30.02,South,186,2.0,6.0,56,0.00,,,0.00,Wunderground v.1.15,2013-07-18 17:25:00,
2013-07-18 12:30:00,89.7,72.4,30.01,SSW,206,2.0,2.0,57,0.00,,,0.00,Wunderground v.1.15,2013-07-18 17:30:00,
2013-07-18 12:35:00,90.0,71.1,30.02,WNW,288,2.0,2.0,54,0.00,,,0.00,Wunderground v.1.15,2013-07-18 17:35:00,
2013-07-18 12:40:00,90.5,71.0,30.01,West,259,2.0,10.0,53,0.00,,,0.00,Wunderground v.1.15,2013-07-18 17:40:00,
2013-07-18 12:45:00,90.3,69.7,30.01,West,268,3.0,10.0,51,0.00,,,0.00,Wunderground v.1.15,2013-07-18 17:45:00,
2013-07-18 12:50:00,90.6,70.6,30.01,West,280,3.0,4.0,52,0.00,,,0.00,Wunderground v.1.15,2013-07-18 17:50:00,
2013-07-18 12:55:00,90.5,69.9,30.01,South,187,2.0,5.0,51,0.00,,,0.00,Wunderground v.1.15,2013-07-18 17:55:00,
2013-07-18 13:00:00,90.5,70.5,30.01,South,171,2.0,5.0,52,0.00,,,0.00,Wunderground v.1.15,2013-07-18 18:00:00,
2013-07-18 13:10:00,91.3,72.3,30.01,West,273,2.0,2.0,54,0.00,,,0.00,Wunderground v.1.15,2013-07-18 18:10:00,
2013-07-18 13:15:00,91.5,70.8,30.00,South,186,1.0,2.0,51,0.00,,,0.00,Wunderground v.1.15,2013-07-18 18:15:00,
2013-07-18 13:25:00,91.0,71.5,30.00,SW,219,3.0,3.0,53,0.00,,,0.00,Wunderground v.1.15,2013-07-18 18:25:00,
2013-07-18 13:30:00,91.2,72.2,30.00,SSW,195,3.0,3.0,54,0.00,,,0.00,Wunderground v.1.15,2013-07-18 18:30:00,
2013-07-18 13:35:00,91.3,71.2,30.00,SSW,194,2.0,6.0,52,0.00,,,0.00,Wunderground v.1.15,2013-07-18 18:35:00,
2013-07-18 13:40:00,91.0,70.9,30.00,SW,222,3.0,3.0,52,0.00,,,0.00,Wunderground v.1.15,2013-07-18 18:40:00,
2013-07-18 13:45:00,91.3,70.1,29.99,South,179,4.0,4.0,50,0.00,,,0.00,Wunderground v.1.15,2013-07-18 18:45:00,
2013-07-18 13:50:00,91.1,69.3,29.99,SW,214,5.0,10.0,49,0.00,,,0.00,Wunderground v.1.15,2013-07-18 18:50:00,
2013-07-18 14:00:00,91.6,70.3,29.99,SSE,160,3.0,3.0,50,0.00,,,0.00,Wunderground v.1.15,2013-07-18 19:00:00,
2013-07-18 14:05:00,91.4,70.1,29.98,SW,221,4.0,6.0,50,0.00,,,0.00,Wunderground v.1.15,2013-07-18 19:05:00,
2013-07-18 14:10:00,91.4,70.7,29.98,SW,216,4.0,4.0,51,0.00,,,0.00,Wunderground v.1.15,2013-07-18 19:10:00,
2013-07-18 14:15:00,91.8,69.3,29.98,SW,218,4.0,6.0,48,0.00,,,0.00,Wunderground v.1.15,2013-07-18 19:15:00,
2013-07-18 14:20:00,91.6,70.3,29.98,SSW,210,4.0,4.0,50,0.00,,,0.00,Wunderground v.1.15,2013-07-18 19:20:00,
2013-07-18 14:25:00,91.5,69.6,29.98,South,190,4.0,4.0,49,0.00,,,0.00,Wunderground v.1.15,2013-07-18 19:25:00,
2013-07-18 14:30:00,91.4,69.6,29.98,SSW,196,2.0,2.0,49,0.00,,,0.00,Wunderground v.1.15,2013-07-18 19:30:00,
2013-07-18 14:35:00,91.8,69.9,29.97,SW,225,1.0,2.0,49,0.00,,,0.00,Wunderground v.1.15,2013-07-18 19:35:00,
2013-07-18 14:40:00,91.5,69.6,29.97,South,174,1.0,1.0,49,0.00,,,0.00,Wunderground v.1.15,2013-07-18 19:40:00,
2013-07-18 14:45:00,91.6,70.3,29.97,WSW,246,1.0,1.0,50,0.00,,,0.00,Wunderground v.1.15,2013-07-18 19:45:00,
2013-07-18 14:50:00,91.9,69.4,29.96,SSW,195,0.0,0.0,48,0.00,,,0.00,Wunderground v.1.15,2013-07-18 19:50:00,
2013-07-18 15:00:00,91.6,69.1,29.96,SE,141,1.0,2.0,48,0.00,,,0.00,Wunderground v.1.15,2013-07-18 20:00:00,
2013-07-18 15:05:00,91.3,68.9,29.96,South,188,1.0,2.0,48,0.00,,,0.00,Wunderground v.1.15,2013-07-18 20:05:00,
2013-07-18 15:10:00,91.8,69.3,29.96,SE,134,1.0,1.0,48,0.00,,,0.00,Wunderground v.1.15,2013-07-18 20:10:00,
2013-07-18 15:15:00,92.0,68.9,29.95,SSW,200,1.0,1.0,47,0.00,,,0.00,Wunderground v.1.15,2013-07-18 20:15:00,
2013-07-18 15:20:00,91.8,68.7,29.95,South,190,1.0,1.0,47,0.00,,,0.00,Wunderground v.1.15,2013-07-18 20:20:00,
2013-07-18 15:25:00,91.5,69.6,29.95,SW,218,1.0,2.0,49,0.00,,,0.00,Wunderground v.1.15,2013-07-18 20:25:00,
2013-07-18 15:30:00,91.9,68.8,29.95,SW,228,1.0,1.0,47,0.00,,,0.00,Wunderground v.1.15,2013-07-18 20:30:00,
2013-07-18 15:35:00,92.4,69.2,29.95,SSW,206,1.0,6.0,47,0.00,,,0.00,Wunderground v.1.15,2013-07-18 20:35:00,
2013-07-18 15:45:00,92.2,68.4,29.94,WSW,246,1.0,1.0,46,0.00,,,0.00,Wunderground v.1.15,2013-07-18 20:45:00,
2013-07-18 15:55:00,93.0,69.2,29.94,NNE,25,1.0,1.0,46,0.00,,,0.00,Wunderground v.1.15,2013-07-18 20:55:00,
2013-07-18 16:00:00,92.5,68.7,29.93,SSW,200,1.0,1.0,46,0.00,,,0.00,Wunderground v.1.15,2013-07-18 21:00:00,
2013-07-18 16:05:00,92.2,69.1,29.93,SSW,207,2.0,2.0,47,0.00,,,0.00,Wunderground v.1.15,2013-07-18 21:05:00,
2013-07-18 16:10:00,91.8,68.7,29.93,SSW,205,2.0,3.0,47,0.00,,,0.00,Wunderground v.1.15,2013-07-18 21:10:00,
2013-07-18 16:15:00,92.1,69.0,29.93,SW,223,2.0,3.0,47,0.00,,,0.00,Wunderground v.1.15,2013-07-18 21:15:00,
2013-07-18 16:25:00,92.4,69.2,29.92,South,183,2.0,5.0,47,0.00,,,0.00,Wunderground v.1.15,2013-07-18 21:25:00,
2013-07-18 16:30:00,92.1,69.0,29.92,SW,235,3.0,3.0,47,0.00,,,0.00,Wunderground v.1.15,2013-07-18 21:30:00,
2013-07-18 16:35:00,92.5,69.3,29.92,SW,214,3.0,3.0,47,0.00,,,0.00,Wunderground v.1.15,2013-07-18 21:35:00,
2013-07-18 16:40:00,92.1,69.6,29.92,SW,221,3.0,3.0,48,0.00,,,0.00,Wunderground v.1.15,2013-07-18 21:40:00,
2013-07-18 16:45:00,91.8,69.3,29.92,SW,221,3.0,3.0,48,0.00,,,0.00,Wunderground v.1.15,2013-07-18 21:45:00,
2013-07-18 16:50:00,92.3,69.8,29.92,SW,226,2.0,2.0,48,0.00,,,0.00,Wunderground v.1.15,2013-07-18 21:50:00,
2013-07-18 17:00:00,92.3,69.8,29.92,WSW,257,2.0,2.0,48,0.00,,,0.00,Wunderground v.1.15,2013-07-18 22:00:00,
2013-07-18 17:05:00,92.0,68.3,29.92,SW,233,3.0,3.0,46,0.00,,,0.00,Wunderground v.1.15,2013-07-18 22:05:00,
2013-07-18 17:10:00,91.9,68.2,29.92,SW,222,3.0,5.0,46,0.00,,,0.00,Wunderground v.1.15,2013-07-18 22:10:00,
2013-07-18 17:15:00,91.7,68.6,29.91,South,186,2.0,5.0,47,0.00,,,0.00,Wunderground v.1.15,2013-07-18 22:15:00,
2013-07-18 17:25:00,91.7,68.6,29.91,SSW,196,3.0,3.0,47,0.00,,,0.00,Wunderground v.1.15,2013-07-18 22:25:00,
2013-07-18 17:30:00,91.3,68.9,29.91,SW,217,2.0,2.0,48,0.00,,,0.00,Wunderground v.1.15,2013-07-18 22:30:00,
2013-07-18 17:35:00,91.5,69.0,29.91,South,188,2.0,2.0,48,0.00,,,0.00,Wunderground v.1.15,2013-07-18 22:35:00,
2013-07-18 17:40:00,91.6,69.1,29.91,SW,222,1.0,4.0,48,0.00,,,0.00,Wunderground v.1.15,2013-07-18 22:40:00,
2013-07-18 17:45:00,91.4,69.0,29.91,SSW,206,2.0,4.0,48,0.00,,,0.00,Wunderground v.1.15,2013-07-18 22:45:00,
2013-07-18 17:50:00,91.4,69.0,29.90,SSW,210,1.0,2.0,48,0.00,,,0.00,Wunderground v.1.15,2013-07-18 22:50:00,
2013-07-18 18:00:00,91.5,69.6,29.90,SSW,198,1.0,1.0,49,0.00,,,0.00,Wunderground v.1.15,2013-07-18 23:00:00,
2013-07-18 18:05:00,91.5,69.6,29.90,South,191,1.0,1.0,49,0.00,,,0.00,Wunderground v.1.15,2013-07-18 23:05:00,
2013-07-18 18:15:00,91.2,70.0,29.89,South,184,1.0,1.0,50,0.00,,,0.00,Wunderground v.1.15,2013-07-18 23:15:00,
2013-07-18 18:20:00,91.1,69.9,29.89,West,271,1.0,1.0,50,0.00,,,0.00,Wunderground v.1.15,2013-07-18 23:20:00,
2013-07-18 18:25:00,90.9,69.7,29.89,SSW,198,1.0,1.0,50,0.00,,,0.00,Wunderground v.1.15,2013-07-18 23:25:00,
2013-07-18 18:30:00,90.8,69.6,29.89,South,177,1.0,4.0,50,0.00,,,0.00,Wunderground v.1.15,2013-07-18 23:30:00,
2013-07-18 18:35:00,90.8,69.6,29.89,West,267,1.0,4.0,50,0.00,,,0.00,Wunderground v.1.15,2013-07-18 23:35:00,
2013-07-18 18:40:00,90.5,69.9,29.89,SW,219,1.0,3.0,51,0.00,,,0.00,Wunderground v.1.15,2013-07-18 23:40:00,
2013-07-18 18:50:00,89.9,69.9,29.89,SW,234,1.0,1.0,52,0.00,,,0.00,Wunderground v.1.15,2013-07-18 23:50:00,
2013-07-18 19:00:00,89.4,70.0,29.89,SSW,201,1.0,1.0,53,0.00,,,0.00,Wunderground v.1.15,2013-07-19 00:00:00,
2013-07-18 19:05:00,89.4,70.0,29.89,South,187,1.0,3.0,53,0.00,,,0.00,Wunderground v.1.15,2013-07-19 00:05:00,
2013-07-18 19:10:00,89.2,70.4,29.89,SSW,209,2.0,2.0,54,0.00,,,0.00,Wunderground v.1.15,2013-07-19 00:10:00,
2013-07-18 19:15:00,89.1,70.3,29.89,SSW,198,1.0,2.0,54,0.00,,,0.00,Wunderground v.1.15,2013-07-19 00:15:00,
2013-07-18 19:20:00,89.0,70.7,29.89,SSW,199,1.0,1.0,55,0.00,,,0.00,Wunderground v.1.15,2013-07-19 00:20:00,
2013-07-18 19:25:00,88.8,70.5,29.89,SSW,212,0.0,1.0,55,0.00,,,0.00,Wunderground v.1.15,2013-07-19 00:25:00,
2013-07-18 19:30:00,88.7,71.0,29.89,SSW,213,0.0,0.0,56,0.00,,,0.00,Wunderground v.1.15,2013-07-19 00:30:00,
2013-07-18 19:35:00,88.5,70.8,29.89,SW,220,0.0,0.0,56,0.00,,,0.00,Wunderground v.1.15,2013-07-19 00:35:00,
2013-07-18 19:40:00,88.3,70.6,29.89,SW,214,0.0,0.0,56,0.00,,,0.00,Wunderground v.1.15,2013-07-19 00:40:00,
2013-07-18 19:50:00,87.9,71.3,29.89,SW,217,0.0,0.0,58,0.00,,,0.00,Wunderground v.1.15,2013-07-19 00:50:00,
2013-07-18 19:55:00,87.6,71.5,29.89,SSW,202,0.0,0.0,59,0.00,,,0.00,Wunderground v.1.15,2013-07-19 00:55:00,
2013-07-18 20:00:00,87.3,71.2,29.89,SSW,196,0.0,0.0,59,0.00,,,0.00,Wunderground v.1.15,2013-07-19 01:00:00,
2013-07-18 20:05:00,87.1,71.0,29.89,South,175,0.0,0.0,59,0.00,,,0.00,Wunderground v.1.15,2013-07-19 01:05:00,
2013-07-18 20:10:00,86.9,70.8,29.89,SW,226,0.0,0.0,59,0.00,,,0.00,Wunderground v.1.15,2013-07-19 01:10:00,
2013-07-18 20:15:00,86.6,71.1,29.89,SSW,195,0.0,0.0,60,0.00,,,0.00,Wunderground v.1.15,2013-07-19 01:15:00,
2013-07-18 20:20:00,86.4,70.9,29.89,SSW,205,0.0,0.0,60,0.00,,,0.00,Wunderground v.1.15,2013-07-19 01:20:00,
2013-07-18 20:25:00,86.1,71.1,29.88,SSW,198,0.0,0.0,61,0.00,,,0.00,Wunderground v.1.15,2013-07-19 01:25:00,
2013-07-18 20:35:00,85.4,70.9,29.88,SSW,198,0.0,0.0,62,0.00,,,0.00,Wunderground v.1.15,2013-07-19 01:35:00,
2013-07-18 20:45:00,84.9,71.4,29.88,SSW,198,0.0,0.0,64,0.00,,,0.00,Wunderground v.1.15,2013-07-19 01:45:00,
2013-07-18 20:50:00,84.6,71.1,29.88,SSW,198,0.0,0.0,64,0.00,,,0.00,Wunderground v.1.15,2013-07-19 01:50:00,
2013-07-18 20:55:00,84.3,71.2,29.88,SSW,198,0.0,0.0,65,0.00,,,0.00,Wunderground v.1.15,2013-07-19 01:55:00,
2013-07-18 21:00:00,84.0,71.4,29.88,SSW,198,0.0,0.0,66,0.00,,,0.00,Wunderground v.1.15,2013-07-19 02:00:00,
2013-07-18 21:05:00,83.7,71.6,29.88,SSW,198,0.0,0.0,67,0.00,,,0.00,Wunderground v.1.15,2013-07-19 02:05:00,
2013-07-18 21:10:00,83.5,71.4,29.88,SSW,198,0.0,0.0,67,0.00,,,0.00,Wunderground v.1.15,2013-07-19 02:10:00,
2013-07-18 21:15:00,83.3,71.6,29.88,South,182,0.0,0.0,68,0.00,,,0.00,Wunderground v.1.15,2013-07-19 02:15:00,
2013-07-18 21:25:00,82.9,71.3,29.88,SSW,207,0.0,0.0,68,0.00,,,0.00,Wunderground v.1.15,2013-07-19 02:25:00,
2013-07-18 21:30:00,82.7,71.1,29.88,South,188,0.0,3.0,68,0.00,,,0.00,Wunderground v.1.15,2013-07-19 02:30:00,
2013-07-18 21:35:00,82.6,71.0,29.88,SSW,192,0.0,3.0,68,0.00,,,0.00,Wunderground v.1.15,2013-07-19 02:35:00,
2013-07-18 21:40:00,82.6,71.0,29.88,South,188,0.0,0.0,68,0.00,,,0.00,Wunderground v.1.15,2013-07-19 02:40:00,
2013-07-18 21:50:00,82.3,71.1,29.88,SSW,192,0.0,0.0,69,0.00,,,0.00,Wunderground v.1.15,2013-07-19 02:50:00,
2013-07-18 21:55:00,82.1,70.9,29.88,SSW,192,0.0,0.0,69,0.00,,,0.00,Wunderground v.1.15,2013-07-19 02:55:00,
2013-07-18 22:00:00,82.0,70.8,29.88,SW,214,0.0,0.0,69,0.00,,,0.00,Wunderground v.1.15,2013-07-19 03:00:00,
2013-07-18 22:05:00,81.8,70.6,29.88,SSW,208,0.0,0.0,69,0.00,,,0.00,Wunderground v.1.15,2013-07-19 03:05:00,
2013-07-18 22:15:00,81.7,70.5,29.88,South,182,0.0,0.0,69,0.00,,,0.00,Wunderground v.1.15,2013-07-19 03:15:00,
2013-07-18 22:25:00,81.6,70.4,29.88,SSW,211,0.0,0.0,69,0.00,,,0.00,Wunderground v.1.15,2013-07-19 03:25:00,
2013-07-18 22:30:00,81.5,70.3,29.88,SSW,211,0.0,0.0,69,0.00,,,0.00,Wunderground v.1.15,2013-07-19 03:30:00,
2013-07-18 22:35:00,81.4,70.2,29.88,SW,226,0.0,0.0,69,0.00,,,0.00,Wunderground v.1.15,2013-07-19 03:35:00,
2013-07-18 22:40:00,81.3,70.2,29.88,SSW,213,0.0,0.0,69,0.00,,,0.00,Wunderground v.1.15,2013-07-19 03:40:00,
2013-07-18 22:45:00,81.3,70.2,29.88,SSW,198,0.0,0.0,69,0.00,,,0.00,Wunderground v.1.15,2013-07-19 03:45:00,
2013-07-18 22:50:00,81.1,70.0,29.88,SSW,198,0.0,0.0,69,0.00,,,0.00,Wunderground v.1.15,2013-07-19 03:50:00,
2013-07-18 23:00:00,80.8,70.1,29.88,SW,218,0.0,0.0,70,0.00,,,0.00,Wunderground v.1.15,2013-07-19 04:00:00,
2013-07-18 23:05:00,80.6,69.9,29.88,SSW,202,0.0,0.0,70,0.00,,,0.00,Wunderground v.1.15,2013-07-19 04:05:00,
2013-07-18 23:10:00,80.5,69.8,29.88,SSW,207,0.0,0.0,70,0.00,,,0.00,Wunderground v.1.15,2013-07-19 04:10:00,
2013-07-18 23:20:00,80.3,70.0,29.87,SSW,205,0.0,0.0,71,0.00,,,0.00,Wunderground v.1.15,2013-07-19 04:20:00,
2013-07-18 23:25:00,80.2,69.9,29.87,SSW,207,0.0,0.0,71,0.00,,,0.00,Wunderground v.1.15,2013-07-19 04:25:00,
2013-07-18 23:30:00,80.1,69.8,29.87,SSW,202,0.0,0.0,71,0.00,,,0.00,Wunderground v.1.15,2013-07-19 04:30:00,
2013-07-18 23:35:00,80.0,69.7,29.87,SSW,203,0.0,0.0,71,0.00,,,0.00,Wunderground v.1.15,2013-07-19 04:35:00,
2013-07-18 23:40:00,79.8,69.6,29.87,South,174,0.0,0.0,71,0.00,,,0.00,Wunderground v.1.15,2013-07-19 04:40:00,
2013-07-18 23:45:00,79.7,69.5,29.87,SSE,163,0.0,0.0,71,0.00,,,0.00,Wunderground v.1.15,2013-07-19 04:45:00,
2013-07-18 23:50:00,79.7,69.5,29.87,SSW,211,0.0,0.0,71,0.00,,,0.00,Wunderground v.1.15,2013-07-19 04:50:00,
2013-07-18 23:55:00,79.7,69.5,29.87,SSW,204,0.0,0.0,71,0.00,,,0.00,Wunderground v.1.15,2013-07-19 04:55:00,